星链-33594 (STARLINK-33594)

导读

STARLINK-33594是美国SpaceX公司星链(Starlink)星座中的第二代卫星,于2025年1月21日成功发射。作为全球低轨卫星互联网项目的组成部分,它服务于全球高速宽带互联网覆盖,尤其支持偏远地区通信。 该星配备增强型相控阵天线与激光星间链路,搭载氪离子推进系统,可实现自主轨道维持与避碰,设计寿命5-7年,退役后会主动离轨在大气层完全烧毁,助力构建低延迟、大容量的全球卫星通信网络。

Basic Information
目录编号:
62770
目录名称:
STARLINK-33594
国际标识:
2025-015N
轨道中心:
EARTH
卫星名称:
星链-33594
卫星全名:
星链-33594 (STARLINK-33594)
卫星状态:
在轨 (已飞行592 天)
发射日期:
2025-01-21 UTC
国别 :
美国 (US)
星等 :
--
Orbit Information
数据来源 国际轨道数据 AOE轨道数据
星历时间 2026-09-05T12:11:16+0800
5小时前
查看轨道信息
2026-08-29T22:00:00+0800
6天前
查看轨道信息
半长轴 6848.78km 6848.74km
偏心率 0.0001416 0.0001359
轨道倾角 53.155° 53.159°
近地点辐角 91.212° 93.480°
升交点赤经 207.168° 237.851°
平近点角 268.904° 261.924°
近地点 469.673km 469.672km
远地点 471.613km 471.534km
周期 94.011分钟 94.010分钟
每日圈数 15.317326 15.317462
Detailed Information
固有亮度:
5
最大亮度:
2.5
卫星平台:
Starlink V1.0
覆盖范围:
全球
运营商:
太空探索技术公司
运营商所在国:
美国
制造商(研发单位):
太空探索技术公司
制造商所在国:
美国
使用方式:
暂无
Satellite Introduction
Starlink 计划是 SpaceX 推出的全球卫星互联网项目,通过发射低轨道卫星,为全球尤其是偏远地区提供高速、低延迟的互联网服务。自 2019 年起,Starlink 已部署数千颗卫星,旨在缩小全球数字鸿沟,推动互联网普及。该项目还为军事、航空等行业提供通信支持,带来广泛经济效益。
2D Orbit Map
3D Orbit Map
Orbit Altitude Analysis Chart
Orbit Inclination Analysis Chart
Orbit Comprehensive Analysis Chart
View Comprehensive Chart
Conjunction Data List
Event ID Objects TCA Miss Dist (km) Collision Risk Probability Collision Risk Index (CRI) Action
CDM_260907-121305-721706-277021
2026-09-07T
12:13:21+0000
1.854 km
极远距离
3.233226E-6 低风险 0.45
CDM_260906-185806-277006-943321
2026-09-06T
18:58:24+0000
2.973 km
极远距离
1.147373E-6 低风险 0.36